[[{"header":{"parameterUnit":"m.s-1","parameterCategory":2,"la1":30.2991,"la2":30.254,"lo1":-89.0895,"lo2":-89.0444,"dy":0.0017,"dx":0.0017,"nx":28,"ny":28,"refTime":"2024-07-22T21:00:00:Z","depth":"0","parameterNumber":2,"parameterNumberName":"U-component_of_CURRENTS"},"data":[0,0,0,0,0,0,0,0,0,0,0,0,0,0,0,0,0,0,0,0,0,0,0,0,0,0,0,0,0,0,0,0,0,0,0,0,0,0,0,0,0,0,0,0,0,0,0,0,0,0,0,0,0,0,0,0,0,0,0.3295,0.3298,0,0.348,0.3481,0.3483,0.3532,0.3531,0.353,0.353,0.3554,0.3555,0.3556,0,0,0,0,0,0,0,0,0,0,0,0,0,0.3041,0.3045,0.3295,0.3298,0.3301,0.3479,0.3481,0.3483,0.3532,0.3531,0.353,0.353,0.3553,0.3555,0.3556,0,0,0,0,0,0,0,0,0,0,0,0,0,0.3175,0.3046,0.3294,0.335,0.3358,0.3479,0.3481,0.3484,0.3532,0.3531,0.353,0.3529,0.3553,0.3555,0.3557,0.3585,0,0,0.3562,0.3563,0,0,0,0,0,0,0,0,0.3168,0.3184,0.3339,0.3347,0.3355,0.3487,0.3401,0.3512,0.3532,0.346,0.353,0.3529,0.3521,0.3525,0.3556,0.3586,0.3587,0.3562,0.3563,0.3564,0.3564,0,0,0,0,0,0,0,0.3158,0.3177,0.3362,0.3343,0.3352,0.3386,0.3403,0.3423,0.3485,0.3466,0.3471,0.3501,0.3523,0.3554,0.3557,0.3588,0.3562,0.3564,0.3565,0.3565,0.3616,0.3616,0,0,0,0,0,0,0.3146,0.3168,0.3356,0.3368,0.3264,0.3392,0.341,0.3441,0.3489,0.3499,0.3502,0.3503,0.3552,0.3555,0.3557,0.359,0.3564,0.3566,0.3567,0.3615,0.3616,0.3616,0,0,0,0,0,0,0.3139,0.3161,0.3349,0.3276,0.3303,0.3397,0.3431,0.3445,0.3478,0.3519,0.3524,0.3521,0.3551,0.3555,0.3575,0.3591,0.3566,0.3568,0.3615,0.3615,0.3616,0.3658,0,0,0,0,0,0,0.3131,0.3157,0.3173,0.3276,0.3307,0.3418,0.3433,0.3449,0.3501,0.3504,0.3537,0.3539,0.3551,0.3572,0.3577,0.3593,0.3569,0.3615,0.3615,0.3616,0.3656,0.3659,0.3662,0,0,0,0,0,0.3121,0.3171,0.3172,0.3196,0.3326,0.342,0.3438,0.3498,0.3502,0.3522,0.354,0.3538,0.3578,0.3574,0.3579,0.3597,0.3615,0.3615,0.3616,0.3654,0.3659,0.3662,0,0,0,0,0,0,0.3082,0.3184,0.3187,0.3265,0.3325,0.343,0.3481,0.3499,0.3535,0.3539,0.355,0.3554,0.3582,0.3577,0.3572,0.3609,0.3592,0.3594,0.362,0.3624,0.3627,0.3753,0.3571,0,0,0,0,0,0.3075,0.3134,0.3214,0.3277,0.3313,0.3386,0.3431,0.3465,0.3518,0.3535,0.3544,0.356,0.3591,0.3595,0.3617,0.3637,0.3723,0.3646,0.365,0.3652,0.3757,0.3907,0.3937,0.3618,0.3618,0.3618,0,0,0.3087,0.3145,0.3183,0.3271,0.3334,0.3397,0.3411,0.3493,0.3539,0.3529,0.3578,0.3578,0.36,0.3632,0.3641,0.3626,0.3767,0.3653,0.3656,0.3761,0.3912,0.3944,0.3972,0.3618,0.3618,0.3618,0,0,0.3138,0.3183,0.324,0.3284,0.3369,0.3421,0.3437,0.3515,0.3547,0.3578,0.3597,0.3633,0.3623,0.3686,0.3706,0.3744,0.3787,0.3697,0.3815,0.3955,0.3986,0.4014,0.4087,0.4122,0.3689,0.3689,0.3689,0,0.3133,0.3222,0.3271,0.3323,0.3387,0.3426,0.3499,0.354,0.3601,0.365,0.3588,0.3685,0.3679,0.3804,0.3813,0.3764,0.3828,0.3793,0.3969,0.3999,0.4027,0.4096,0.4134,0.3691,0.3691,0.3691,0.3691,0,0.3221,0.3279,0.3329,0.3406,0.3466,0.3546,0.3607,0.3647,0.3661,0.3702,0.3794,0.3805,0.3881,0.3847,0.3846,0.4029,0.4,0.3963,0.3974,0.4063,0.4126,0.4165,0.3694,0.3694,0.3693,0.3692,0,0,0.3251,0.3366,0.338,0.3444,0.3524,0.3606,0.3677,0.3792,0.3871,0.3882,0.4002,0.4052,0.4073,0.4108,0.41,0.4219,0.4414,0.4184,0.419,0.4287,0.47,0.4597,0.4628,0.4407,0.4415,0.4422,0.4637,0,0.3309,0.3438,0.3471,0.3605,0.3701,0.3746,0.3815,0.3906,0.3954,0.4052,0.4119,0.4199,0.4162,0.419,0.4321,0.4407,0.4533,0.436,0.458,0.4587,0.4512,0.4678,0.4477,0.4648,0.4675,0.4681,0.4686,0,0.339,0.3479,0.3615,0.3757,0.38,0.3857,0.4029,0.4086,0.4211,0.4241,0.4357,0.4385,0.458,0.4497,0.4786,0.4673,0.4737,0.4784,0.4791,0.4746,0.4563,0.4578,0.4719,0.4523,0.4746,0.4742,0.4737,0,0.3458,0.3592,0.3722,0.3765,0.39,0.3972,0.404,0.4155,0.4209,0.4378,0.4417,0.4637,0.4711,0.4897,0.4976,0.4911,0.5263,0.5157,0.5135,0.5122,0.5035,0.5002,0.5062,0.5417,0.5417,0.5416,0.5416,0,0.354,0.3642,0.3764,0.3834,0.3961,0.4046,0.416,0.4237,0.4344,0.4407,0.4526,0.4612,0.4824,0.4991,0.509,0.5249,0.5359,0.5258,0.5226,0.5024,0.499,0.4879,0.479,0.5424,0.5422,0.5421,0.5419,0,0.3592,0.3668,0.3808,0.3957,0.3989,0.4081,0.4158,0.423,0.4335,0.4424,0.4475,0.4654,0.4869,0.5047,0.532,0.5348,0.5371,0.5533,0.5248,0.5182,0.4947,0.4866,0.4899,0.4769,0.5583,0.5582,0.5582,0,0.3641,0.3724,0.3859,0.3896,0.3949,0.4056,0.4092,0.4201,0.425,0.4417,0.4458,0.4684,0.4791,0.5153,0.5303,0.551,0.5336,0.5406,0.5273,0.5004,0.4892,0.4711,0.4585,0.5133,0.5129,0.5126,0.5123,0,0.3708,0.3736,0.3812,0.3879,0.3931,0.398,0.4048,0.4072,0.4184,0.4262,0.4364,0.4473,0.4786,0.4919,0.5187,0.5278,0.5125,0.5341,0.5178,0.4698,0.4404,0.4232,0.4862,0.5094,0.5097,0.5099,0.5101,0.5102,0.3702,0.3735,0.3787,0.3829,0.3869,0.3864,0.3842,0.3914,0.3947,0.4004,0.4201,0.4305,0.4546,0.4892,0.495,0.4889,0.4919,0.4775,0.4744,0.4619,0.4379,0.4924,0.5033,0.5035,0.5038,0.504,0.5041,0,0.3653,0.3667,0.3726,0.3727,0.3698,0.3758,0.3764,0.3706,0.3673,0.3821,0.39,0.4075,0.4207,0.4371,0.4452,0.4326,0.4164,0.4205,0.3908,0.385,0.4449,0.4306,0.4121,0.4121,0.4121,0.4121,0.4121,0.4122,0.3613,0.3608,0.3623,0.3534,0.3523,0.3417,0.3377,0.3327,0.3382,0.3384,0.3455,0.361,0.3846,0.3976,0.3874,0.3801,0.3515,0.3398,0.3398,0.378,0.3828,0.3874,0.3719,0.3413,0.3412,0.2642,0.2636,0.2631]},{"header":{"parameterUnit":"m.s-1","parameterCategory":2,"la1":30.2991,"la2":30.254,"lo1":-89.0895,"lo2":-89.0444,"dy":0.0017,"dx":0.0017,"nx":28,"ny":28,"refTime":"2024-07-22T21:00:00:Z","depth":"0","parameterNumber":3,"parameterNumberName":"V-component_of_CURRENTS"},"data":[0,0,0,0,0,0,0,0,0,0,0,0,0,0,0,0,0,0,0,0,0,0,0,0,0,0,0,0,0,0,0,0,0,0,0,0,0,0,0,0,0,0,0,0,0,0,0,0,0,0,0,0,0,0,0,0,0,0,0.0058,0.0058,0,0.0037,0.0037,0.0036,0.0007,0.0007,0.0007,0.0006,-0.0085,-0.0087,-0.0089,0,0,0,0,0,0,0,0,0,0,0,0,0,0.0041,0.0041,0.0058,0.0058,0.0058,0.0037,0.0037,0.0036,0.0007,0.0007,0.0006,0.0006,-0.0084,-0.0087,-0.0089,0,0,0,0,0,0,0,0,0,0,0,0,0,0.0036,0.0042,0.0058,0.0042,0.004,0.0037,0.0037,0.0036,0.0008,0.0007,0.0006,0.0006,-0.0084,-0.0087,-0.009,-0.0097,0,0,-0.0099,-0.01,0,0,0,0,0,0,0,0,0.0036,0.0037,0.0044,0.0043,0.0041,0.0025,-0.0003,-0.0011,0.0008,0.0019,0.0006,0.0006,-0.0054,-0.0059,-0.0062,-0.0101,-0.0105,-0.0099,-0.0101,-0.0103,-0.0103,0,0,0,0,0,0,0,0.0037,0.0037,0.0049,0.0044,0.0042,0.0024,0.0023,-0.0004,-0.0016,0.0018,0.0016,0.0015,-0.0055,-0.0059,-0.0065,-0.0107,-0.0099,-0.0102,-0.0104,-0.0105,-0.0185,-0.0185,0,0,0,0,0,0,0.0044,0.0038,0.0049,0.0048,0.0039,0.0025,0.0024,0.003,-0.0014,-0.0021,0.0016,0.0014,-0.0054,-0.0061,-0.0068,-0.0052,-0.0103,-0.0106,-0.0107,-0.0185,-0.0185,-0.0185,0,0,0,0,0,0,0.0044,0.0046,0.005,0.0043,0.0042,0.0027,0.0033,0.003,0.0026,-0.0015,-0.0023,0.0016,-0.0054,-0.0064,-0.0093,-0.0057,-0.0107,-0.011,-0.0184,-0.0185,-0.0185,-0.0038,0,0,0,0,0,0,0.0044,0.0046,0.005,0.0044,0.0043,0.0054,0.0034,0.003,0.0028,0.0025,-0.0017,-0.0026,-0.0056,-0.0088,-0.0096,-0.0062,-0.0112,-0.0184,-0.0184,-0.0185,-0.0042,-0.0033,-0.0025,0,0,0,0,0,0.0043,0.0068,0.0051,0.0052,0.0051,0.0054,0.0053,0.0038,0.0028,0.0032,-0.0001,-0.0025,-0.0097,-0.0091,-0.01,-0.0066,-0.0184,-0.0184,-0.0185,-0.0046,-0.0035,-0.0026,0,0,0,0,0,0,0.0076,0.0067,0.0048,0.0071,0.0059,0.005,0.0063,0.0043,0.0023,0.002,-0.0024,-0.0035,-0.0044,-0.0091,-0.0083,-0.0098,-0.0146,-0.0149,-0.0038,-0.0028,-0.0019,0.0075,-0.0115,0,0,0,0,0,0.0081,0.009,0.0074,0.0091,0.0093,0.0074,0.0074,0.0059,0.0042,0.0033,0.0001,-0.0036,-0.0053,-0.0069,-0.01,-0.0109,-0.0092,-0.01,-0.0091,-0.0083,-0.0018,0.0053,0.0078,-0.0187,-0.0187,-0.0187,0,0,0.0103,0.0095,0.0103,0.0097,0.0094,0.012,0.0074,0.0081,0.0103,0.0025,0.0041,-0.0004,-0.0051,-0.0052,-0.0061,-0.0086,-0.0016,-0.0084,-0.0076,-0.0014,0.0056,0.0083,0.0107,-0.0187,-0.0187,-0.0187,0,0,0.017,0.0143,0.0183,0.0171,0.0162,0.0152,0.0156,0.014,0.0134,0.0123,0.0089,0.0079,0.0015,0.0024,0.0012,0.0046,0.0031,0.0002,0.0129,0.0196,0.0221,0.0244,0.025,0.0272,0.0004,0.0005,0.0005,0,0.0198,0.0243,0.0194,0.0225,0.0244,0.0176,0.0235,0.0213,0.0184,0.0212,0.0139,0.0138,0.0074,0.0147,0.0142,0.0079,0.009,0.0102,0.0218,0.024,0.0261,0.0262,0.0285,0.0012,0.0011,0.001,0.0009,0,0.0295,0.0324,0.035,0.037,0.0374,0.0406,0.0376,0.0376,0.0345,0.0337,0.0376,0.0302,0.0323,0.0272,0.0212,0.0325,0.0273,0.023,0.0215,0.0299,0.029,0.0312,0.0022,0.0019,0.0017,0.0015,0,0,0.0398,0.042,0.043,0.0475,0.0456,0.0486,0.0516,0.0563,0.0629,0.0563,0.0676,0.0606,0.0584,0.0571,0.0503,0.0533,0.0633,0.0446,0.0446,0.0495,0.0755,0.0636,0.0646,0.062,0.0625,0.0629,0.0675,0,0.0505,0.061,0.0584,0.0691,0.0758,0.0705,0.0754,0.0768,0.0761,0.0831,0.0789,0.0837,0.0691,0.0711,0.0729,0.0692,0.0704,0.0624,0.0632,0.0632,0.0554,0.0674,0.0589,0.0619,0.0695,0.0699,0.0701,0,0.0642,0.0687,0.0821,0.0892,0.0919,0.0958,0.1059,0.1085,0.1136,0.1137,0.1184,0.1141,0.1204,0.104,0.1068,0.1027,0.0912,0.0843,0.0842,0.0718,0.0557,0.0552,0.0654,0.0386,0.0734,0.0731,0.0729,0,0.0796,0.0874,0.0996,0.1011,0.1061,0.1123,0.1152,0.1201,0.1256,0.1356,0.142,0.1467,0.1505,0.144,0.1259,0.1194,0.126,0.1149,0.0927,0.0913,0.0843,0.0815,0.0738,0.1162,0.1162,0.1162,0.1161,0,0.0956,0.1049,0.1076,0.1136,0.126,0.1266,0.1404,0.1428,0.1521,0.1629,0.1601,0.1702,0.161,0.1595,0.141,0.1261,0.1383,0.1011,0.0956,0.0875,0.0851,0.0611,0.0501,0.1163,0.1163,0.1162,0.1162,0,0.1116,0.1143,0.1257,0.1317,0.1338,0.1424,0.1501,0.1596,0.1678,0.1832,0.1879,0.1937,0.1944,0.1789,0.169,0.1453,0.1164,0.1189,0.1066,0.0997,0.0526,0.0428,0.0378,0.029,0.1009,0.1007,0.1006,0,0.1211,0.1294,0.1357,0.1389,0.1411,0.1513,0.1575,0.1659,0.1761,0.1959,0.2055,0.2124,0.2155,0.1975,0.1638,0.1357,0.1114,0.1014,0.0869,0.0547,0.0399,0.0324,0.025,0.0805,0.0802,0.0799,0.0797,0,0.1335,0.1351,0.1398,0.1469,0.1535,0.1631,0.1739,0.1846,0.1979,0.2131,0.2318,0.2377,0.2202,0.1936,0.1529,0.1274,0.0839,0.0945,0.069,0.0327,0.0176,0.0047,0.0673,0.0773,0.0775,0.0777,0.0778,0.0779,0.1368,0.1406,0.1445,0.1515,0.1597,0.1736,0.1838,0.1978,0.2171,0.2399,0.2463,0.2563,0.2135,0.1607,0.1273,0.055,0.0644,0.0277,0.0212,0.0184,0.0037,0.0577,0.0556,0.0557,0.0558,0.0559,0.056,0,0.1379,0.1414,0.1478,0.1566,0.1673,0.1726,0.1928,0.2052,0.2277,0.2469,0.2617,0.2399,0.1848,0.1283,0.0364,-0.0118,-0.0255,-0.0365,-0.0485,-0.0504,0.0036,-0.0045,-0.0291,-0.029,-0.029,-0.029,-0.029,-0.0289,0.138,0.1419,0.146,0.1604,0.1688,0.1867,0.1996,0.2188,0.2354,0.2525,0.254,0.254,0.2022,0.0515,-0.0568,-0.0799,-0.1044,-0.1106,-0.1181,-0.0868,-0.0815,-0.0763,-0.0869,-0.1282,-0.1283,-0.1719,-0.1724,-0.1727]}],[{"header":{"parameterUnit":"m.s-1","parameterCategory":2,"la1":30.2991,"la2":30.254,"lo1":-89.0895,"lo2":-89.0444,"dy":0.0017,"dx":0.0017,"nx":28,"ny":28,"refTime":"2024-07-22T21:00:00:Z","depth":"2","parameterNumber":2,"parameterNumberName":"U-component_of_CURRENTS"},"data":[0,0,0,0,0,0,0,0,0,0,0,0,0,0,0,0,0,0,0,0,0,0,0,0,0,0,0,0,0,0,0,0,0,0,0,0,0,0,0,0,0,0,0,0,0,0,0,0,0,0,0,0,0,0,0,0,0,0,0.2516,0.2516,0,0.2674,0.2677,0.268,0.2859,0.286,0.2861,0.2862,0.2744,0.274,0.2736,0,0,0,0,0,0,0,0,0,0,0,0,0,0.2436,0.2438,0.2516,0.2517,0.2517,0.2673,0.2677,0.2681,0.2859,0.286,0.2861,0.2862,0.2745,0.2741,0.2736,0,0,0,0,0,0,0,0,0,0,0,0,0,0.2538,0.2438,0.2516,0.261,0.2619,0.2672,0.2677,0.2682,0.2859,0.286,0.2861,0.2863,0.2747,0.2741,0.2735,0.2672,0,0,0.2717,0.2714,0,0,0,0,0,0,0,0,0.2532,0.2543,0.2596,0.2603,0.2613,0.2731,0.2605,0.2658,0.2858,0.2788,0.2862,0.2863,0.27,0.2699,0.2757,0.2666,0.2661,0.2716,0.2713,0.271,0.2709,0,0,0,0,0,0,0,0.2524,0.2537,0.2598,0.2596,0.2606,0.2665,0.2683,0.2619,0.2744,0.2794,0.2803,0.2789,0.2706,0.2762,0.2754,0.2659,0.2717,0.2711,0.2708,0.2705,0.2756,0.276,0,0,0,0,0,0,0.2461,0.253,0.2593,0.2601,0.2553,0.2664,0.2685,0.2708,0.2752,0.2756,0.2788,0.2796,0.2772,0.2761,0.275,0.281,0.271,0.2705,0.2701,0.2751,0.2757,0.2762,0,0,0,0,0,0,0.246,0.2467,0.2586,0.2552,0.2569,0.2661,0.2688,0.271,0.28,0.2746,0.275,0.2856,0.2773,0.2758,0.277,0.28,0.2702,0.2697,0.2745,0.2753,0.2759,0.2841,0,0,0,0,0,0,0.2458,0.2467,0.248,0.2548,0.2567,0.2674,0.2685,0.2711,0.2777,0.2792,0.2803,0.2794,0.2772,0.278,0.2764,0.279,0.2692,0.2739,0.2748,0.2757,0.2832,0.285,0.2865,0,0,0,0,0,0.2455,0.2483,0.2481,0.2488,0.2578,0.2674,0.2696,0.2776,0.2779,0.2857,0.2866,0.2795,0.2829,0.2778,0.2759,0.2783,0.2734,0.2746,0.2756,0.2824,0.2846,0.2865,0,0,0,0,0,0,0.2458,0.2503,0.2504,0.2543,0.2613,0.2699,0.2771,0.2786,0.2863,0.2882,0.2826,0.282,0.2835,0.282,0.2765,0.2843,0.278,0.2788,0.2839,0.2859,0.2875,0.2946,0.2687,0,0,0,0,0,0.2449,0.2493,0.2539,0.2576,0.2625,0.2693,0.2739,0.2794,0.2845,0.2888,0.286,0.2865,0.2863,0.2871,0.2858,0.2878,0.2893,0.2901,0.2918,0.2932,0.2988,0.308,0.3108,0.2798,0.2798,0.2798,0,0,0.2457,0.248,0.2507,0.2578,0.2657,0.2733,0.2738,0.2846,0.2892,0.2844,0.2904,0.2887,0.2879,0.2925,0.2934,0.2917,0.302,0.2946,0.2956,0.3007,0.3094,0.3124,0.315,0.2806,0.2804,0.2803,0,0,0.2509,0.2535,0.2606,0.2667,0.2758,0.2797,0.2822,0.2911,0.2964,0.3008,0.2985,0.3027,0.3,0.3037,0.3041,0.3147,0.3084,0.3125,0.3276,0.3362,0.3388,0.3411,0.3416,0.3439,0.3159,0.3159,0.316,0,0.253,0.2591,0.2643,0.2726,0.2769,0.282,0.2906,0.2964,0.3024,0.3064,0.3051,0.3115,0.3075,0.3163,0.3222,0.3178,0.3197,0.3177,0.3381,0.3404,0.3426,0.3426,0.3451,0.3165,0.3164,0.3163,0.3163,0,0.2632,0.2684,0.2749,0.2847,0.2907,0.3005,0.3056,0.3115,0.314,0.3182,0.3277,0.3288,0.3347,0.3333,0.3304,0.3443,0.339,0.3358,0.3314,0.3462,0.3452,0.3476,0.3172,0.317,0.3169,0.3167,0,0,0.269,0.2801,0.2825,0.2862,0.2982,0.3033,0.3126,0.3228,0.3285,0.3371,0.3467,0.3526,0.356,0.3577,0.3552,0.3649,0.3771,0.3592,0.3594,0.3572,0.392,0.3758,0.3766,0.3772,0.3778,0.3783,0.3829,0,0.2774,0.2891,0.2936,0.3038,0.3105,0.3169,0.3231,0.3318,0.3389,0.3481,0.3582,0.3642,0.3641,0.3665,0.3783,0.3762,0.3849,0.376,0.3808,0.3809,0.3626,0.3795,0.347,0.3476,0.3852,0.3855,0.3858,0,0.287,0.2914,0.3027,0.3096,0.3143,0.3205,0.3317,0.3382,0.3532,0.3597,0.3756,0.3792,0.3952,0.3907,0.4078,0.4021,0.4008,0.4004,0.4004,0.3858,0.3695,0.3407,0.3504,0.3897,0.3894,0.3891,0.3888,0,0.2846,0.2978,0.3044,0.308,0.3177,0.3242,0.3305,0.3436,0.3486,0.3677,0.3738,0.3952,0.4016,0.4135,0.4121,0.4124,0.425,0.4232,0.4082,0.4065,0.3807,0.3758,0.437,0.437,0.437,0.437,0.4369,0,0.2891,0.2938,0.3038,0.3064,0.312,0.3226,0.3318,0.3403,0.3554,0.3624,0.3798,0.388,0.4083,0.4148,0.418,0.4191,0.4301,0.4161,0.4107,0.3818,0.3773,0.4161,0.4136,0.4371,0.4371,0.4371,0.437,0,0.283,0.2922,0.2957,0.3063,0.3101,0.3131,0.326,0.3317,0.3484,0.3584,0.3639,0.3847,0.3997,0.4102,0.4232,0.4202,0.4236,0.4177,0.3781,0.3685,0.3989,0.3969,0.4128,0.4124,0.412,0.4117,0.4114,0,0.2807,0.2823,0.2893,0.2895,0.2944,0.3022,0.3068,0.3247,0.3306,0.3533,0.3558,0.3754,0.3827,0.3957,0.3973,0.4011,0.4137,0.3689,0.368,0.4054,0.3986,0.3971,0.3956,0.334,0.3331,0.3324,0.3318,0,0.2669,0.2697,0.2691,0.272,0.2763,0.2821,0.2921,0.2958,0.3169,0.3257,0.3369,0.3449,0.3602,0.3535,0.3574,0.3561,0.3689,0.3548,0.407,0.3446,0.3313,0.3244,0.3255,0.3254,0.326,0.3265,0.3269,0.3271,0.2503,0.2458,0.246,0.249,0.2552,0.2625,0.2644,0.2753,0.2827,0.2924,0.3069,0.3097,0.3158,0.3126,0.3054,0.3065,0.3341,0.3226,0.3248,0.3277,0.3174,0.3042,0.2908,0.2912,0.2915,0.2919,0.2921,0,0.2242,0.2245,0.2239,0.227,0.2304,0.2446,0.253,0.2529,0.2571,0.2639,0.2678,0.2452,0.2435,0.2584,0.2477,0.2475,0.2457,0.2431,0.2386,0.245,0.2506,0.2364,0.1883,0.188,0.1877,0.1875,0,0,0.2085,0.199,0.2028,0.2022,0.2111,0.2147,0.22,0.2204,0.2234,0.2121,0.21,0.2239,0.2418,0.2077,0.2056,0.1962,0.2191,0.1896,0.2723,0.2728,0.2781,0.2953,0.2803,0,0,0,0,0]},{"header":{"parameterUnit":"m.s-1","parameterCategory":2,"la1":30.2991,"la2":30.254,"lo1":-89.0895,"lo2":-89.0444,"dy":0.0017,"dx":0.0017,"nx":28,"ny":28,"refTime":"2024-07-22T21:00:00:Z","depth":"2","parameterNumber":3,"parameterNumberName":"V-component_of_CURRENTS"},"data":[0,0,0,0,0,0,0,0,0,0,0,0,0,0,0,0,0,0,0,0,0,0,0,0,0,0,0,0,0,0,0,0,0,0,0,0,0,0,0,0,0,0,0,0,0,0,0,0,0,0,0,0,0,0,0,0,0,0,-0.0202,-0.0203,0,-0.0366,-0.0369,-0.0372,-0.0428,-0.0426,-0.0424,-0.0423,-0.0637,-0.0644,-0.0651,0,0,0,0,0,0,0,0,0,0,0,0,0,-0.0168,-0.0168,-0.0202,-0.0203,-0.0204,-0.0365,-0.0369,-0.0372,-0.0428,-0.0426,-0.0424,-0.0422,-0.0634,-0.0643,-0.0652,0,0,0,0,0,0,0,0,0,0,0,0,0,-0.0254,-0.0168,-0.0202,-0.0242,-0.0246,-0.0365,-0.0369,-0.0373,-0.0429,-0.0426,-0.0423,-0.0421,-0.0632,-0.0642,-0.0653,-0.0777,0,0,-0.0687,-0.0692,0,0,0,0,0,0,0,0,-0.0249,-0.0257,-0.0235,-0.0239,-0.0244,-0.0362,-0.0435,-0.0506,-0.043,-0.0373,-0.0423,-0.0419,-0.0543,-0.0561,-0.0616,-0.0787,-0.0796,-0.0688,-0.0695,-0.07,-0.0703,0,0,0,0,0,0,0,-0.0243,-0.0252,-0.028,-0.0236,-0.0241,-0.0329,-0.0338,-0.0451,-0.0483,-0.0378,-0.0379,-0.0377,-0.0547,-0.0606,-0.0622,-0.08,-0.0688,-0.0698,-0.0705,-0.0709,-0.0884,-0.0882,0,0,0,0,0,0,-0.0187,-0.0245,-0.0275,-0.0284,-0.0225,-0.033,-0.034,-0.0338,-0.0481,-0.0496,-0.038,-0.0379,-0.0588,-0.0609,-0.0629,-0.065,-0.07,-0.071,-0.0717,-0.0886,-0.0883,-0.0881,0,0,0,0,0,0,-0.0186,-0.0189,-0.0268,-0.0258,-0.0272,-0.033,-0.0329,-0.0342,-0.038,-0.0479,-0.0497,-0.0398,-0.0587,-0.0614,-0.068,-0.0663,-0.0715,-0.0725,-0.0888,-0.0885,-0.0882,-0.0777,0,0,0,0,0,0,-0.0185,-0.0188,-0.0184,-0.0254,-0.027,-0.0328,-0.0331,-0.0347,-0.0377,-0.0379,-0.0502,-0.052,-0.0586,-0.0663,-0.0691,-0.0679,-0.0734,-0.0891,-0.0887,-0.0883,-0.0784,-0.0771,-0.0761,0,0,0,0,0,-0.0183,-0.0171,-0.0184,-0.0187,-0.0258,-0.0328,-0.0348,-0.0389,-0.038,-0.0412,-0.0455,-0.0515,-0.0657,-0.0672,-0.0705,-0.0696,-0.0893,-0.0888,-0.0884,-0.0789,-0.0774,-0.0761,0,0,0,0,0,0,-0.0158,-0.0177,-0.0191,-0.0187,-0.0249,-0.0331,-0.0351,-0.0384,-0.0453,-0.0435,-0.0526,-0.0549,-0.0599,-0.0657,-0.0671,-0.0725,-0.0773,-0.0774,-0.0688,-0.0676,-0.0664,-0.0603,-0.0743,0,0,0,0,0,-0.0149,-0.0143,-0.0194,-0.0197,-0.0214,-0.0286,-0.032,-0.0348,-0.0404,-0.0432,-0.0514,-0.0569,-0.0617,-0.0648,-0.0724,-0.0781,-0.0805,-0.078,-0.0769,-0.0759,-0.0726,-0.0719,-0.0704,-0.0866,-0.0866,-0.0866,0,0,-0.014,-0.0148,-0.0147,-0.0192,-0.0237,-0.0264,-0.0303,-0.0337,-0.0353,-0.0447,-0.05,-0.0561,-0.0624,-0.0667,-0.0692,-0.0708,-0.0733,-0.0753,-0.0745,-0.0716,-0.0713,-0.0697,-0.0683,-0.0863,-0.0864,-0.0864,0,0,-0.0118,-0.0126,-0.0117,-0.0158,-0.02,-0.0244,-0.0243,-0.0325,-0.0349,-0.0405,-0.045,-0.0475,-0.0595,-0.0615,-0.0636,-0.0609,-0.0683,-0.0637,-0.0531,-0.0526,-0.0512,-0.05,-0.0544,-0.0537,-0.0618,-0.0618,-0.0618,0,-0.0104,-0.0099,-0.0135,-0.0143,-0.0157,-0.0219,-0.0226,-0.0272,-0.0367,-0.0373,-0.0392,-0.0472,-0.0551,-0.0539,-0.052,-0.0584,-0.0607,-0.0585,-0.051,-0.0499,-0.0489,-0.0536,-0.0529,-0.0612,-0.0613,-0.0613,-0.0614,0,-0.0089,-0.0085,-0.0082,-0.0099,-0.0132,-0.0148,-0.0193,-0.0229,-0.025,-0.0285,-0.0291,-0.0362,-0.0385,-0.0418,-0.0467,-0.0427,-0.048,-0.051,-0.0545,-0.0466,-0.0522,-0.0517,-0.0604,-0.0606,-0.0608,-0.0609,0,0,-0.0041,-0.0062,-0.0059,-0.0073,-0.0102,-0.0139,-0.0131,-0.0157,-0.0143,-0.0188,-0.0152,-0.0204,-0.0215,-0.0234,-0.029,-0.0282,-0.0265,-0.0353,-0.0356,-0.0396,-0.0282,-0.0387,-0.0394,-0.0282,-0.0279,-0.0277,-0.0363,0,-0.0016,-0.0023,-0.0026,-0.0039,-0.0054,-0.0079,-0.0076,-0.01,-0.0112,-0.0108,-0.0096,-0.0104,-0.0149,-0.015,-0.0135,-0.0252,-0.024,-0.0241,-0.0351,-0.0355,-0.0457,-0.0386,-0.0316,-0.039,-0.0359,-0.0358,-0.0357,0,0.0006,-0.0005,-0.0002,-0.002,-0.0023,-0.0022,-0.0019,-0.0025,-0.0002,0.0003,0.006,0.0037,0.0057,0.0012,-0.0049,-0.0049,-0.0134,-0.0209,-0.0215,-0.0335,-0.0448,-0.0457,-0.0383,-0.035,-0.0351,-0.0351,-0.0352,0,0.0013,0.0013,0.0016,0.0006,-0.0016,0.0006,0.0008,0.0018,0.0028,0.009,0.0115,0.0151,0.0151,0.0108,-0.0088,-0.0042,-0.0205,-0.0163,-0.0323,-0.0335,-0.0305,-0.0317,-0.0166,-0.0166,-0.0166,-0.0165,-0.0165,0,0.0021,0.0019,0.0023,0.0009,0.0014,0.0021,0.0054,0.0059,0.0123,0.0171,0.0187,0.0225,0.0177,0.0059,-0.0056,-0.0227,-0.0181,-0.0283,-0.0342,-0.0274,-0.0282,-0.0265,-0.0275,-0.0169,-0.0168,-0.0167,-0.0167,0,-0.0007,0.001,-0.0008,-0.0002,0.0009,0.0006,0.0058,0.0093,0.0148,0.0227,0.0259,0.0264,0.0186,0.0027,-0.0114,-0.0223,-0.0375,-0.0463,-0.0423,-0.0472,-0.0487,-0.049,-0.0502,-0.0506,-0.0509,-0.0512,-0.0514,0,-0.0029,-0.0037,-0.0039,-0.0028,-0.002,0.0004,0.0043,0.0099,0.0163,0.0246,0.0295,0.0248,0.0265,-0.004,-0.0235,-0.0441,-0.0481,-0.0584,-0.0435,-0.0454,-0.051,-0.0509,-0.0508,-0.0369,-0.037,-0.0371,-0.0371,0,-0.0092,-0.0081,-0.0096,-0.0062,-0.0023,0.0011,0.009,0.0148,0.0261,0.0347,0.0443,0.0468,0.0252,0.01,-0.0269,-0.0405,-0.0523,-0.0601,-0.0626,-0.0314,-0.034,-0.0393,-0.0393,-0.0378,-0.0378,-0.0377,-0.0377,-0.0376,-0.0134,-0.0148,-0.0123,-0.0088,-0.0033,0.0078,0.0165,0.0292,0.0434,0.0653,0.0592,0.0682,0.0403,0.0091,-0.024,-0.0554,-0.0492,-0.0566,-0.0557,-0.0549,-0.0537,-0.0569,-0.065,-0.0651,-0.0652,-0.0652,-0.0653,0,-0.0171,-0.0155,-0.0132,-0.005,0.0056,0.0086,0.0249,0.041,0.065,0.0795,0.0932,0.074,0.0532,0.0205,-0.022,-0.0514,-0.0473,-0.0613,-0.0473,-0.0466,-0.0459,-0.0437,-0.0527,-0.0528,-0.0528,-0.0528,0,0,-0.0194,-0.0161,-0.0123,0.005,0.0138,0.0333,0.0462,0.0701,0.0867,0.1057,0.1125,0.1132,0.0685,0.0399,-0.0006,-0.0249,-0.0278,-0.0297,-0.0368,-0.0146,-0.0135,-0.0411,-0.0368,0,0,0,0,0]}],[{"header":{"parameterUnit":"m.s-1","parameterCategory":2,"la1":30.2991,"la2":30.254,"lo1":-89.0895,"lo2":-89.0444,"dy":0.0017,"dx":0.0017,"nx":28,"ny":28,"refTime":"2024-07-22T21:00:00:Z","depth":"4","parameterNumber":2,"parameterNumberName":"U-component_of_CURRENTS"},"data":[0,0,0,0,0,0,0,0,0,0,0,0,0,0,0,0,0,0,0,0,0,0,0,0,0,0,0,0,0,0,0,0,0,0,0,0,0,0,0,0,0,0,0,0,0,0,0,0,0,0,0,0,0,0,0,0,0,0,0.1072,0.1072,0,0.1025,0.1024,0.1023,0.1031,0.1032,0.1033,0.1034,0.0959,0.0956,0.0953,0,0,0,0,0,0,0,0,0,0,0,0,0,0.1132,0.113,0.1072,0.1072,0.1072,0.1025,0.1024,0.1023,0.103,0.1032,0.1033,0.1035,0.096,0.0957,0.0953,0,0,0,0,0,0,0,0,0,0,0,0,0,0.1093,0.113,0.1072,0.1073,0.1073,0.1025,0.1024,0.1023,0.103,0.1032,0.1034,0.1036,0.0962,0.0957,0.0952,0.0886,0,0,0.0938,0.0936,0,0,0,0,0,0,0,0,0.1095,0.109,0.1073,0.1073,0.1073,0.104,0.1018,0.0977,0.103,0.1042,0.1034,0.1036,0.0985,0.0979,0.0959,0.0883,0.0879,0.0937,0.0935,0.0933,0.0931,0,0,0,0,0,0,0,0.1098,0.1092,0.1049,0.1073,0.1073,0.1064,0.106,0.101,0.1,0.1041,0.1042,0.1044,0.0985,0.0964,0.0958,0.0878,0.0938,0.0933,0.093,0.0929,0.0999,0.1003,0,0,0,0,0,0,0.1112,0.1094,0.105,0.1048,0.1094,0.1062,0.1057,0.1045,0.1001,0.0997,0.1042,0.1044,0.0971,0.0963,0.0955,0.1038,0.0933,0.0928,0.0925,0.0994,0.1,0.1005,0,0,0,0,0,0,0.1114,0.1108,0.1052,0.1075,0.1068,0.106,0.1045,0.1043,0.1055,0.1003,0.0999,0.1062,0.0972,0.0962,0.0969,0.1029,0.0926,0.0922,0.0989,0.0996,0.1002,0.1098,0,0,0,0,0,0,0.1115,0.1108,0.1119,0.1075,0.1067,0.1029,0.1043,0.1041,0.1054,0.1057,0.1017,0.101,0.0973,0.0977,0.0964,0.1021,0.0918,0.0983,0.0992,0.1,0.1089,0.1108,0.1124,0,0,0,0,0,0.1117,0.1104,0.112,0.1116,0.1077,0.1028,0.1022,0.102,0.1053,0.1042,0.106,0.1013,0.1027,0.0975,0.0959,0.1016,0.0978,0.0989,0.0999,0.1081,0.1104,0.1123,0,0,0,0,0,0,0.1115,0.1103,0.1119,0.11,0.1078,0.1032,0.1017,0.1037,0.1038,0.1061,0.103,0.1023,0.1053,0.1035,0.0979,0.1077,0.1011,0.1019,0.1079,0.1099,0.1116,0.1093,0.0914,0,0,0,0,0,0.1127,0.1124,0.1102,0.1086,0.1071,0.1058,0.1049,0.1058,0.1048,0.1052,0.1049,0.1068,0.1078,0.1089,0.1072,0.11,0.1082,0.1149,0.1166,0.1181,0.1161,0.1161,0.1174,0.104,0.1039,0.1039,0,0,0.1116,0.1115,0.111,0.1089,0.1063,0.1051,0.1054,0.104,0.107,0.104,0.1086,0.1096,0.1095,0.1138,0.1156,0.1135,0.1235,0.1194,0.1205,0.1177,0.1173,0.1185,0.1196,0.1047,0.1045,0.1044,0,0,0.1085,0.109,0.1079,0.1069,0.1062,0.1055,0.1065,0.1058,0.1091,0.1137,0.1146,0.1196,0.1214,0.1228,0.1239,0.1341,0.1305,0.138,0.1453,0.1456,0.1465,0.1472,0.155,0.1563,0.141,0.1411,0.1411,0,0.1085,0.1069,0.1064,0.1055,0.105,0.1066,0.1055,0.1082,0.1106,0.1152,0.1173,0.1249,0.1252,0.13,0.1376,0.137,0.1396,0.1362,0.1471,0.1477,0.1482,0.1559,0.1572,0.1416,0.1416,0.1415,0.1415,0,0.1027,0.1048,0.1025,0.1036,0.1032,0.1014,0.1051,0.11,0.1173,0.1227,0.1308,0.1323,0.1387,0.142,0.1435,0.1507,0.1525,0.1466,0.1397,0.15,0.1579,0.159,0.1425,0.1423,0.1421,0.1419,0,0,0.0953,0.0985,0.0981,0.1015,0.1026,0.1018,0.1079,0.1135,0.1225,0.1286,0.1377,0.1443,0.1498,0.1515,0.1539,0.1561,0.1675,0.1565,0.1563,0.1609,0.1753,0.161,0.1609,0.1633,0.1634,0.1634,0.1821,0,0.0914,0.0909,0.0933,0.0961,0.0968,0.102,0.1079,0.1162,0.1266,0.1372,0.1423,0.1511,0.1524,0.1587,0.1614,0.1645,0.1698,0.1634,0.1675,0.1677,0.1504,0.1612,0.1637,0.1829,0.1831,0.1833,0.1834,0,0.0847,0.0877,0.0877,0.0978,0.0979,0.1019,0.1134,0.1193,0.1346,0.1438,0.1536,0.1595,0.1685,0.1654,0.1748,0.1718,0.1762,0.1764,0.177,0.1588,0.155,0.1689,0.1854,0.1852,0.1851,0.185,0.1848,0,0.0785,0.0844,0.0855,0.0871,0.0971,0.1027,0.1088,0.1235,0.1322,0.149,0.1592,0.1679,0.1754,0.1778,0.1817,0.1827,0.1864,0.1874,0.1781,0.1777,0.1801,0.179,0.1911,0.191,0.191,0.191,0.1909,0,0.0715,0.0748,0.0855,0.0862,0.093,0.1024,0.1128,0.1221,0.1391,0.1473,0.1633,0.1699,0.1784,0.1819,0.1843,0.1834,0.1898,0.1803,0.1794,0.1858,0.185,0.1815,0.1801,0.1917,0.1915,0.1914,0.1912,0,0.0624,0.0682,0.0717,0.0838,0.0899,0.0938,0.1111,0.1202,0.1392,0.1498,0.1554,0.1762,0.184,0.1868,0.1915,0.1872,0.1853,0.1815,0.1921,0.1912,0.1801,0.1792,0.1841,0.1837,0.1834,0.1831,0.1829,0,0.0555,0.0571,0.0662,0.0692,0.0753,0.0867,0.0948,0.1154,0.1246,0.1489,0.1515,0.1693,0.178,0.178,0.1817,0.1846,0.1796,0.181,0.179,0.1798,0.1785,0.1781,0.1776,0.1823,0.1822,0.1822,0.1821,0,0.0443,0.0473,0.0495,0.0561,0.0641,0.072,0.0861,0.0939,0.1146,0.1325,0.1466,0.1561,0.1648,0.1723,0.1712,0.1713,0.1815,0.1777,0.1786,0.1768,0.1777,0.1767,0.1766,0.1809,0.1811,0.1812,0.1812,0,0.035,0.0323,0.0366,0.0426,0.0501,0.0576,0.0662,0.0814,0.0951,0.1238,0.1251,0.1443,0.1592,0.1653,0.1625,0.1623,0.1669,0.1629,0.1648,0.1662,0.1504,0.1482,0.1424,0,0,0,0,0,0.0275,0.0256,0.0259,0.0317,0.0383,0.0455,0.0614,0.0723,0.0928,0.098,0.1139,0.1208,0.1331,0.1456,0.1433,0.1567,0.1644,0.1534,0.1598,0.1744,0.1758,0.1582,0,0,0,0,0,0,0.0223,0.0212,0.0216,0.0237,0.0275,0.0362,0.0456,0.059,0.0666,0.0873,0.096,0.1116,0.1259,0.1311,0.1401,0.1427,0.1441,0.1652,0.1649,0.1736,0.1749,0.176,0.1584,0,0,0,0,0]},{"header":{"parameterUnit":"m.s-1","parameterCategory":2,"la1":30.2991,"la2":30.254,"lo1":-89.0895,"lo2":-89.0444,"dy":0.0017,"dx":0.0017,"nx":28,"ny":28,"refTime":"2024-07-22T21:00:00:Z","depth":"4","parameterNumber":3,"parameterNumberName":"V-component_of_CURRENTS"},"data":[0,0,0,0,0,0,0,0,0,0,0,0,0,0,0,0,0,0,0,0,0,0,0,0,0,0,0,0,0,0,0,0,0,0,0,0,0,0,0,0,0,0,0,0,0,0,0,0,0,0,0,0,0,0,0,0,0,0,-0.0022,-0.0022,0,0.0007,0.0007,0.0008,0.0013,0.0013,0.0012,0.0012,0.0029,0.003,0.0031,0,0,0,0,0,0,0,0,0,0,0,0,0,-0.0059,-0.0058,-0.0022,-0.0022,-0.0022,0.0007,0.0007,0.0008,0.0013,0.0013,0.0012,0.0012,0.0029,0.003,0.0031,0,0,0,0,0,0,0,0,0,0,0,0,0,-0.0036,-0.0058,-0.0022,-0.0018,-0.0017,0.0006,0.0007,0.0008,0.0013,0.0013,0.0012,0.0011,0.0028,0.003,0.0031,0.0052,0,0,0.0035,0.0035,0,0,0,0,0,0,0,0,-0.0037,-0.0034,-0.0018,-0.0018,-0.0017,0.0004,0.0,0.0021,0.0013,0.0004,0.0012,0.0011,0.0019,0.0021,0.0031,0.0053,0.0053,0.0035,0.0036,0.0036,0.0037,0,0,0,0,0,0,0,-0.0039,-0.0036,-0.0009,-0.0018,-0.0017,-0.0012,-0.0009,0.0005,0.0016,0.0005,0.0005,0.0005,0.0019,0.003,0.0031,0.0054,0.0035,0.0036,0.0037,0.0037,0.0025,0.0024,0,0,0,0,0,0,-0.0047,-0.0037,-0.001,-0.0008,-0.0031,-0.0011,-0.0008,-0.0001,0.0016,0.0017,0.0005,0.0005,0.0028,0.003,0.0032,0.0012,0.0036,0.0038,0.0038,0.0026,0.0024,0.0023,0,0,0,0,0,0,-0.0047,-0.0044,-0.0011,-0.0024,-0.002,-0.001,-0.0002,0.0,0.001,0.0016,0.0018,0.0013,0.0027,0.003,0.0047,0.0015,0.0038,0.0039,0.0027,0.0025,0.0024,0.0002,0,0,0,0,0,0,-0.0048,-0.0044,-0.0043,-0.0024,-0.0019,0.0013,-0.0001,0.0001,0.001,0.001,0.0023,0.0024,0.0027,0.0045,0.0048,0.0017,0.004,0.0029,0.0026,0.0024,0.0004,0.0,-0.0004,0,0,0,0,0,-0.005,-0.0031,-0.0043,-0.004,-0.0017,0.0014,0.0018,0.0023,0.0011,0.0027,0.0028,0.0024,0.0032,0.0047,0.005,0.0018,0.003,0.0027,0.0025,0.0006,0.0001,-0.0004,0,0,0,0,0,0,-0.0042,-0.0029,-0.0041,-0.0021,-0.0006,0.0014,0.0034,0.0026,0.004,0.0036,0.0035,0.0037,0.0038,0.0034,0.0049,0.0005,0.002,0.0018,0.0004,-0.0,-0.0004,-0.0016,0.0041,0,0,0,0,0,-0.0044,-0.0031,-0.0019,-0.0005,0.0011,0.0018,0.0028,0.0027,0.004,0.0046,0.0052,0.0042,0.0031,0.0022,0.0031,0.0018,-0.0012,-0.001,-0.0014,-0.0018,-0.0027,-0.0124,-0.0138,0.0015,0.0015,0.0015,0,0,-0.0042,-0.0031,-0.0027,-0.0004,0.0014,0.0036,0.0025,0.0048,0.0048,0.0046,0.006,0.005,0.0031,0.0017,0.0011,0.0007,-0.0068,-0.0021,-0.0023,-0.0031,-0.0128,-0.0143,-0.0157,0.0013,0.0014,0.0014,0,0,-0.002,-0.0012,0.0007,0.0027,0.0047,0.0053,0.0058,0.0078,0.0073,0.0081,0.0063,0.0029,0.0041,-0.0004,-0.0023,-0.0047,-0.0071,-0.0049,-0.0096,-0.0189,-0.0203,-0.0216,-0.0236,-0.0251,-0.0071,-0.0071,-0.0071,0,-0.0021,0.0005,0.0018,0.0049,0.0069,0.0061,0.0091,0.0085,0.0097,0.0082,0.0086,0.0037,0.0019,-0.0045,-0.0068,-0.006,-0.009,-0.0073,-0.0196,-0.021,-0.0222,-0.0241,-0.0256,-0.0073,-0.0072,-0.0072,-0.0072,0,0.0018,0.0037,0.0063,0.009,0.0114,0.0143,0.0141,0.0142,0.0127,0.01,0.0057,0.002,-0.0024,-0.0051,-0.0069,-0.0176,-0.0156,-0.0175,-0.0185,-0.0239,-0.0254,-0.027,-0.0074,-0.0074,-0.0074,-0.0073,0,0,0.0023,0.0075,0.0086,0.011,0.014,0.0172,0.0166,0.0158,0.0142,0.0102,0.0065,-0.0012,-0.0059,-0.0088,-0.0134,-0.0236,-0.0349,-0.0254,-0.0258,-0.0273,-0.0511,-0.0418,-0.0426,-0.0397,-0.0401,-0.0404,-0.0472,0,0.0048,0.0117,0.013,0.0186,0.0225,0.0222,0.0229,0.0208,0.0173,0.0135,0.0028,-0.0009,-0.0068,-0.0096,-0.0218,-0.0313,-0.0398,-0.0326,-0.0456,-0.0459,-0.0372,-0.0445,-0.0416,-0.0484,-0.0487,-0.049,-0.0492,0,0.008,0.0126,0.0195,0.0246,0.0266,0.0288,0.0301,0.0307,0.0226,0.019,0.0087,0.002,-0.0136,-0.0166,-0.0395,-0.0347,-0.0433,-0.0508,-0.0513,-0.0436,-0.0398,-0.0428,-0.0521,-0.0519,-0.0517,-0.0515,-0.0513,0,0.011,0.0168,0.0229,0.0253,0.0306,0.0325,0.0351,0.0317,0.0335,0.022,0.0195,0.0006,-0.0062,-0.025,-0.0404,-0.0421,-0.062,-0.0659,-0.0642,-0.0633,-0.0684,-0.0671,-0.081,-0.081,-0.081,-0.081,-0.081,0,0.0146,0.0192,0.0247,0.0296,0.0361,0.038,0.0437,0.0412,0.0391,0.0386,0.0229,0.0172,-0.0094,-0.023,-0.0398,-0.0551,-0.0618,-0.066,-0.0667,-0.0683,-0.0669,-0.0693,-0.0678,-0.0812,-0.0812,-0.0811,-0.0811,0,0.0181,0.0211,0.0293,0.0365,0.0388,0.0448,0.0542,0.0571,0.0526,0.0509,0.0476,0.0291,0.008,-0.0124,-0.0397,-0.0496,-0.0672,-0.0688,-0.0628,-0.0628,-0.0625,-0.0611,-0.0734,-0.0731,-0.073,-0.0728,-0.0727,0,0.0213,0.0258,0.0371,0.0425,0.0464,0.0555,0.062,0.0639,0.0659,0.0576,0.0552,0.0378,0.0225,-0.0072,-0.0304,-0.0575,-0.06,-0.0653,-0.0725,-0.0634,-0.0629,-0.0618,-0.0607,-0.0724,-0.0723,-0.0723,-0.0722,0,0.0278,0.0317,0.0391,0.0501,0.0582,0.0683,0.0754,0.0777,0.0765,0.0742,0.0602,0.0423,0.0222,-0.0058,-0.0214,-0.0424,-0.0628,-0.0636,-0.0643,-0.0711,-0.0624,-0.0618,-0.0609,-0.0716,-0.0717,-0.0717,-0.0718,0,0.0325,0.0381,0.0468,0.0556,0.0661,0.0731,0.0788,0.0793,0.0817,0.0707,0.0668,0.042,0.0286,0.0027,-0.0147,-0.0316,-0.0399,-0.046,-0.0478,-0.0488,-0.0399,-0.025,-0.025,0,0,0,0,0,0.0354,0.0408,0.051,0.0595,0.0699,0.0743,0.0829,0.0863,0.0844,0.0763,0.0716,0.0517,0.0226,0.0092,-0.0071,-0.0136,-0.0426,-0.0328,-0.0504,-0.068,-0.0687,-0.0618,0,0,0,0,0,0,0.0371,0.0459,0.0503,0.0595,0.0648,0.075,0.0797,0.0796,0.0748,0.0703,0.0548,0.049,0.0205,0.0299,-0.0081,-0.0131,-0.0257,-0.0459,-0.0461,-0.0676,-0.0682,-0.0688,-0.0619,0,0,0,0,0]}]]